Flag for South Korea Weather past 2 weeks in Incheon, South Korea

Now
72 °F

Fog.


Feels Like: 74 °F
Forecast: 66 / 78 °F
Wind: 12 mph from West

Location: Incheon International Airport

Current Time: Jul 2, 2015 at 7:42:41 PM

Latest Report: Jul 2, 2015 at 7:00 PM


Visibility: 2 mi

Pressure: 29.56 "Hg

Humidity: 73%

Dew point: 63 °F

Location of IncheonLocation

Historic Weather in Incheon — Graph

°F

Incheon temperature yesterday

Maximum temperature yesterday: 77 °F (at 11:30 AM)
Minimum temperature yesterday: 68 °F (at 4:00 AM)
Average temperature yesterday: 72 °F

Past Weeks' High & Low Weather Summary

 TemperatureHumidityPressure
High82 °F (Jun 24, 12:00 PM)94% (Jun 20, 5:30 AM)29.89 "Hg (Jun 20, 5:30 AM)
Low61 °F (Jun 21, 4:30 AM)37% (Jun 19, 12:30 PM)29.33 "Hg (Jul 1, 3:00 AM)
Average71 °F68%29.69 "Hg
* Reported Jun 17 6:00 PM — Jul 2 6:30 PM, Incheon, Weather by CustomWeather, © 2015

Note: Actual official high and low records may vary slightly from our data, if they occured in-between our weather recording intervals... More about our weather records

Advertising

Incheon weather history for previous 24 hours

 ConditionsComfort  
Time TempWeatherWind HumidityBarometerVisibility
6:30 PM
Thu, Jul 2
72 °FHaze.14 mph73%29.56 "Hg3 mi
6:00 PM73 °FPassing clouds.14 mph69%29.56 "Hg4 mi
5:30 PM73 °FPassing clouds.14 mph69%29.56 "Hg5 mi
5:00 PM75 °FClear.15 mph65%29.56 "Hg5 mi
4:30 PM75 °FClear.14 mph61%29.56 "Hg5 mi
4:00 PM75 °FScattered clouds.14 mph61%29.56 "Hg5 mi
3:30 PM77 °FScattered clouds.17 mph51%29.56 "Hg5 mi
3:00 PM77 °FBroken clouds.14 mph51%29.56 "Hg5 mi
2:30 PM77 °FScattered clouds.14 mph47%29.56 "Hg5 mi
2:00 PM79 °FScattered clouds.14 mph45%29.56 "Hg5 mi
1:30 PM77 °FScattered clouds.13 mph54%29.56 "Hg5 mi
1:00 PM79 °FScattered clouds.10 mph51%29.56 "Hg6 mi
12:30 PM77 °FBroken clouds.12 mph57%29.56 "Hg4 mi
12:00 PM77 °FScattered clouds.10 mph57%29.56 "Hg4 mi
11:30 AM75 °FPartly sunny.10 mph65%29.56 "Hg4 mi
11:00 AM73 °FFog.12 mph69%29.56 "Hg3 mi
10:30 AM73 °FFog.10 mph74%29.56 "Hg3 mi
10:00 AM72 °FFog.8 mph73%29.56 "Hg3 mi
9:30 AM72 °FFog.6 mph78%29.56 "Hg2 mi
9:00 AM72 °FFog.9 mph78%29.56 "Hg2 mi
8:30 AM70 °FFog.9 mph83%29.56 "Hg2 mi
8:00 AM70 °FFog.8 mph83%29.56 "Hg2 mi
7:30 AM70 °FFog.8 mph83%29.56 "Hg2 mi
7:00 AM70 °FFog.6 mph83%29.53 "Hg2 mi
6:30 AM68 °FFog.8 mph88%29.53 "Hg1 mi
6:00 AM68 °FFog.10 mph88%29.53 "Hg1 mi
5:30 AM68 °FFog.8 mph88%29.53 "Hg1 mi
5:00 AM68 °FFog.5 mph83%29.50 "Hg2 mi
4:30 AM68 °FFog.7 mph83%29.53 "Hg2 mi
4:00 AM68 °FFog.6 mph83%29.53 "Hg2 mi
3:30 AM68 °FFog.6 mph83%29.53 "Hg3 mi
3:00 AM68 °FFog.5 mph83%29.53 "Hg3 mi
2:30 AM66 °FFog.6 mph88%29.50 "Hg3 mi
2:00 AM68 °FPassing clouds.9 mph83%29.50 "Hg4 mi
1:30 AM68 °FClear.10 mph83%29.50 "Hg4 mi
1:00 AM68 °FClear.10 mph83%29.50 "Hg5 mi
12:30 AM68 °FClear.10 mph83%29.50 "Hg5 mi
12:00 AM68 °FClear.9 mph78%29.50 "Hg5 mi
11:30 PM
Wed, Jul 1
68 °FClear.9 mph78%29.50 "Hg5 mi
11:00 PM68 °FClear.10 mph78%29.50 "Hg5 mi
10:30 PM70 °FClear.12 mph73%29.50 "Hg5 mi
10:00 PM68 °FClear.13 mph78%29.50 "Hg5 mi
9:30 PM70 °FClear.16 mph73%29.50 "Hg5 mi
9:00 PM70 °FClear.16 mph73%29.47 "Hg10 mi
8:30 PM70 °FSunny.17 mph73%29.47 "Hg10 mi
8:00 PM70 °FSunny.18 mph69%29.47 "Hg10 mi
7:30 PM72 °FSunny.18 mph69%29.45 "Hg10 mi
7:00 PM72 °FSunny.16 mph69%29.45 "Hg10 mi
Weather by CustomWeather, © 2015

See weather overviewHow to use our weather pages